Flag for Mexico Weather past 2 weeks in Campeche, Campeche, Mexico

Now
75 °F

Passing clouds.


Feels Like: 74 °F
Forecast: 78 / 90 °F
Wind: No wind

Location: Aerop. Internacional Merida - Yuc

Current Time: Aug 28, 2015 at 3:10:37 AM

Latest Report: Aug 28, 2015 at 2:46 AM


Visibility: 7 mi

Pressure: 29.90 "Hg

Humidity: 94%

Dew point: 73 °F

Location of CampecheLocation

Historic Weather in Campeche — Graph

°F

Campeche temperature yesterday

Maximum temperature yesterday: 95 °F (at 1:47 PM)
Minimum temperature yesterday: 75 °F (at 2:52 AM)
Average temperature yesterday: 82 °F

Past Weeks' High & Low Weather Summary

 TemperatureHumidityPressure
High99 °F (Aug 19, 3:46 PM)100% (Aug 16, 6:34 PM)30.07 "Hg (Aug 16, 6:34 PM)
Low34 °F (Aug 17, 7:03 PM)39% (Aug 14, 2:43 PM)29.75 "Hg (Aug 19, 3:46 PM)
Average83 °F77%29.94 "Hg
* Reported Aug 13 1:48 AM — Aug 28 1:45 AM, Campeche, Weather by CustomWeather, © 2015

Note: Actual official high and low records may vary slightly from our data, if they occured in-between our weather recording intervals... More about our weather records

Advertising

Campeche weather history for previous 24 hours

 ConditionsComfort  
Time TempWeatherWind HumidityBarometerVisibility
1:45 AM
Fri, Aug 28
75 °FPartly cloudy.No wind94%29.92 "Hg7 mi
12:48 AM75 °FPartly cloudy.No wind94%29.96 "Hg7 mi
11:48 PM
Thu, Aug 27
77 °FPartly cloudy.5 mph94%29.98 "Hg7 mi
10:42 PM77 °FPassing clouds.No wind94%29.98 "Hg7 mi
9:48 PM77 °FPassing clouds.No wind94%29.96 "Hg7 mi
7:49 PM79 °FPartly sunny.No wind94%29.91 "Hg7 mi
6:48 PM79 °FLight rain. Mostly cloudy.No wind94%29.92 "Hg6 mi
5:48 PM79 °FLight rain. Cloudy.7 mph89%29.91 "Hg5 mi
3:49 PM84 °FPartly sunny.5 mph70%29.89 "Hg7 mi
3:21 PM86 °FThunderstorms. Partly sunny.13 mph62%29.90 "Hg7 mi
2:45 PM90 °FBroken clouds.9 mph55%29.89 "Hg7 mi
2:11 PM91 °FPartly sunny.17 mph52%29.92 "Hg7 mi
1:47 PM95 °FBroken clouds.No wind47%29.91 "Hg7 mi
12:48 PM91 °FBroken clouds.7 mph56%29.94 "Hg7 mi
11:45 AM91 °FBroken clouds.No wind56%29.97 "Hg7 mi
10:45 AM88 °FBroken clouds.No wind70%29.98 "Hg7 mi
9:46 AM86 °FPartly sunny.No wind70%29.92 "Hg7 mi
8:45 AM82 °FPassing clouds.No wind79%29.96 "Hg7 mi
7:45 AM79 °FScattered clouds.No wind89%29.95 "Hg7 mi
6:48 AM75 °FPassing clouds.No wind100%29.93 "Hg7 mi
5:54 AM75 °FPassing clouds.No wind94%29.92 "Hg7 mi
4:52 AM77 °FClear.No wind100%29.92 "Hg7 mi
3:50 AM75 °FClear.No wind100%29.93 "Hg7 mi
Weather by CustomWeather, © 2015

See weather overviewHow to use our weather pages